Back to catalog

COSMOS 706

AliveMilitaryHEO
NORAD 7625·PAYLOAD·🇷🇺 Russia

Launched Jan 30, 1975 from Plesetsk Cosmodrome

Loading…

Next Passes (next 24 hours)

TLE

FreshSource: Space-Track

Epoch: Sep 14, 2026, 02:00 UTC

1 07625U 75007A   26257.08394737 -.00000868  00000-0  00000-0 0  9995
2 07625  63.9087 144.3210 6840170   3.2989 359.7342  2.00476302238221

Track COSMOS 706 in real time with AllMySat

Download on the App Store